owner,sensor,date,latitude,longitude,vertical_datum,sea_water_temperature,qcFlag 
TABS,ioos:station:wmo:42048:1,2010-05-13T19:00:00Z,27.9396,-96.8429,-2.0,33.28,2 
TABS,ioos:station:wmo:42048:1,2010-05-13T19:30:00Z,27.9396,-96.8429,-2.0,35.05,2 
TABS,ioos:station:wmo:42048:1,2010-05-13T20:00:00Z,27.9396,-96.8429,-2.0,34.91,2 
TABS,ioos:station:wmo:42048:1,2010-05-13T20:30:00Z,27.9396,-96.8429,-2.0,35.27,2 
TABS,ioos:station:wmo:42048:1,2010-05-13T21:00:00Z,27.9396,-96.8429,-2.0,36.86,2 
TABS,ioos:station:wmo:42048:1,2010-05-13T21:30:00Z,27.9396,-96.8429,-2.0,35.65,2 
TABS,ioos:station:wmo:42048:1,2010-05-13T22:00:00Z,27.9396,-96.8429,-2.0,35.41,2 
TABS,ioos:station:wmo:42048:1,2010-05-13T22:30:00Z,27.9396,-96.8429,-2.0,34.93,2 
TABS,ioos:station:wmo:42048:1,2010-05-14T14:00:00Z,27.9396,-96.8429,-2.0,25.75,2 
TABS,ioos:station:wmo:42048:1,2010-05-14T14:30:00Z,27.9396,-96.8429,-2.0,27.25,2 
TABS,ioos:station:wmo:42048:1,2010-05-14T15:00:00Z,27.9396,-96.8429,-2.0,27.99,2 
TABS,ioos:station:wmo:42048:1,2010-05-14T15:30:00Z,27.9396,-96.8429,-2.0,29.76,2 
TABS,ioos:station:wmo:42048:1,2010-05-14T16:00:00Z,27.9396,-96.8429,-2.0,31.2,2 
TABS,ioos:station:wmo:42048:1,2010-05-14T16:30:00Z,27.9396,-96.8429,-2.0,31.96,2 
TABS,ioos:station:wmo:42048:1,2010-05-14T17:00:00Z,27.9396,-96.8429,-2.0,33.07,2 
TABS,ioos:station:wmo:42048:1,2010-05-14T17:30:00Z,27.9396,-96.8429,-2.0,34.28,2 
TABS,ioos:station:wmo:42048:1,2010-05-14T18:00:00Z,27.9396,-96.8429,-2.0,35.0,2 
TABS,ioos:station:wmo:42048:1,2010-05-14T18:30:00Z,27.9396,-96.8429,-2.0,35.25,2 
TABS,ioos:station:wmo:42048:1,2010-05-14T19:00:00Z,27.9396,-96.8429,-2.0,35.39,2 
TABS,ioos:station:wmo:42048:1,2010-05-14T19:30:00Z,27.9396,-96.8429,-2.0,34.16,2 
TABS,ioos:station:wmo:42048:1,2010-05-14T20:00:00Z,27.9396,-96.8429,-2.0,34.16,2 
TABS,ioos:station:wmo:42048:1,2010-05-14T20:30:00Z,27.9396,-96.8429,-2.0,34.16,2 
TABS,ioos:station:wmo:42048:1,2010-05-14T21:00:00Z,27.9396,-96.8429,-2.0,34.16,2 
TABS,ioos:station:wmo:42048:1,2010-05-14T21:30:00Z,27.9396,-96.8429,-2.0,34.16,2 
TABS,ioos:station:wmo:42048:1,2010-05-14T22:00:00Z,27.9396,-96.8429,-2.0,34.16,2 
TABS,ioos:station:wmo:42048:1,2010-05-14T22:30:00Z,27.9396,-96.8429,-2.0,34.16,2 
TABS,ioos:station:wmo:42048:1,2010-05-14T23:00:00Z,27.9396,-96.8429,-2.0,34.16,2 
TABS,ioos:station:wmo:42048:1,2010-05-14T23:30:00Z,27.9396,-96.8429,-2.0,34.16,2 
TABS,ioos:station:wmo:42048:1,2010-05-15T00:00:00Z,27.9396,-96.8429,-2.0,34.16,2 
TABS,ioos:station:wmo:42048:1,2010-05-15T00:30:00Z,27.9396,-96.8429,-2.0,34.16,2 
TABS,ioos:station:wmo:42048:1,2010-05-15T01:00:00Z,27.9396,-96.8429,-2.0,34.16,2 
TABS,ioos:station:wmo:42048:1,2010-05-15T01:30:00Z,27.9396,-96.8429,-2.0,34.16,2 
TABS,ioos:station:wmo:42048:1,2010-05-15T02:00:00Z,27.9396,-96.8429,-2.0,34.16,2 
TABS,ioos:station:wmo:42048:1,2010-05-15T02:30:00Z,27.9396,-96.8429,-2.0,34.16,2 
TABS,ioos:station:wmo:42048:1,2010-05-15T03:00:00Z,27.9396,-96.8429,-2.0,34.16,2 
TABS,ioos:station:wmo:42048:1,2010-05-15T03:30:00Z,27.9396,-96.8429,-2.0,34.16,2 
TABS,ioos:station:wmo:42048:1,2010-05-15T04:00:00Z,27.9396,-96.8429,-2.0,34.16,2 
TABS,ioos:station:wmo:42048:1,2010-05-15T04:30:00Z,27.9396,-96.8429,-2.0,34.16,2 
TABS,ioos:station:wmo:42048:1,2010-05-15T05:00:00Z,27.9396,-96.8429,-2.0,19.5,2 
TABS,ioos:station:wmo:42048:1,2010-05-15T05:30:00Z,27.9396,-96.8429,-2.0,19.35,2 
TABS,ioos:station:wmo:42048:1,2010-05-15T06:00:00Z,27.9396,-96.8429,-2.0,19.25,2 
TABS,ioos:station:wmo:42048:1,2010-05-15T06:30:00Z,27.9396,-96.8429,-2.0,19.05,2 
TABS,ioos:station:wmo:42048:1,2010-05-15T07:00:00Z,27.9396,-96.8429,-2.0,18.76,2 
TABS,ioos:station:wmo:42048:1,2010-05-15T07:30:00Z,27.9396,-96.8429,-2.0,18.55,2 
TABS,ioos:station:wmo:42048:1,2010-05-15T08:00:00Z,27.9396,-96.8429,-2.0,18.57,2 
TABS,ioos:station:wmo:42048:1,2010-05-15T08:30:00Z,27.9396,-96.8429,-2.0,18.3,2 
TABS,ioos:station:wmo:42048:1,2010-05-15T09:00:00Z,27.9396,-96.8429,-2.0,18.08,2 
TABS,ioos:station:wmo:42048:1,2010-05-15T09:30:00Z,27.9396,-96.8429,-2.0,18.01,2 
TABS,ioos:station:wmo:42048:1,2010-05-15T10:00:00Z,27.9396,-96.8429,-2.0,17.9,2 
TABS,ioos:station:wmo:42048:1,2010-05-15T10:30:00Z,27.9396,-96.8429,-2.0,17.86,2 
TABS,ioos:station:wmo:42048:1,2010-05-15T11:00:00Z,27.9396,-96.8429,-2.0,17.88,2 
TABS,ioos:station:wmo:42048:1,2010-05-15T11:30:00Z,27.9396,-96.8429,-2.0,17.98,2 
TABS,ioos:station:wmo:42048:1,2010-05-15T12:00:00Z,27.9396,-96.8429,-2.0,18.04,2 
TABS,ioos:station:wmo:42048:1,2010-05-15T12:30:00Z,27.9396,-96.8429,-2.0,17.98,2 
TABS,ioos:station:wmo:42048:1,2010-05-15T13:00:00Z,27.9396,-96.8429,-2.0,18.01,2 
TABS,ioos:station:wmo:42048:1,2010-05-15T13:30:00Z,27.9396,-96.8429,-2.0,17.99,2 
TABS,ioos:station:wmo:42048:1,2010-05-15T14:00:00Z,27.9396,-96.8429,-2.0,17.78,2 
TABS,ioos:station:wmo:42048:1,2010-05-15T14:30:00Z,27.9396,-96.8429,-2.0,17.85,2 
TABS,ioos:station:wmo:42048:1,2010-05-15T15:00:00Z,27.9396,-96.8429,-2.0,18.12,2 
TABS,ioos:station:wmo:42048:1,2010-05-15T15:30:00Z,27.9396,-96.8429,-2.0,18.41,2 
TABS,ioos:station:wmo:42048:1,2010-05-15T16:00:00Z,27.9396,-96.8429,-2.0,18.93,2 
TABS,ioos:station:wmo:42048:1,2010-05-15T16:30:00Z,27.9396,-96.8429,-2.0,19.46,2 
TABS,ioos:station:wmo:42048:1,2010-05-15T17:00:00Z,27.9396,-96.8429,-2.0,20.59,2 
TABS,ioos:station:wmo:42048:1,2010-05-15T17:30:00Z,27.9396,-96.8429,-2.0,21.84,2 
TABS,ioos:station:wmo:42048:1,2010-05-15T18:00:00Z,27.9396,-96.8429,-2.0,22.73,2 
TABS,ioos:station:wmo:42048:1,2010-05-15T18:30:00Z,27.9396,-96.8429,-2.0,24.13,2 
TABS,ioos:station:wmo:42048:1,2010-05-15T19:00:00Z,27.9396,-96.8429,-2.0,27.1,2 
TABS,ioos:station:wmo:42048:1,2010-05-15T19:30:00Z,27.9396,-96.8429,-2.0,29.99,2 
TABS,ioos:station:wmo:42048:1,2010-05-15T20:00:00Z,27.9396,-96.8429,-2.0,30.42,2 
TABS,ioos:station:wmo:42048:1,2010-05-15T20:30:00Z,27.9396,-96.8429,-2.0,30.18,2 
TABS,ioos:station:wmo:42048:1,2010-05-15T21:00:00Z,27.9396,-96.8429,-2.0,29.95,2 
TABS,ioos:station:wmo:42048:1,2010-05-15T21:30:00Z,27.9396,-96.8429,-2.0,30.04,2 
TABS,ioos:station:wmo:42048:1,2010-05-15T22:00:00Z,27.9396,-96.8429,-2.0,29.88,2 
TABS,ioos:station:wmo:42048:1,2010-05-15T22:30:00Z,27.9396,-96.8429,-2.0,29.17,2 
TABS,ioos:station:wmo:42048:1,2010-05-15T23:00:00Z,27.9396,-96.8429,-2.0,29.18,2 
TABS,ioos:station:wmo:42048:1,2010-05-15T23:30:00Z,27.9396,-96.8429,-2.0,31.04,2 
TABS,ioos:station:wmo:42048:1,2010-05-16T00:00:00Z,27.9396,-96.8429,-2.0,30.34,2 
TABS,ioos:station:wmo:42048:1,2010-05-16T00:30:00Z,27.9396,-96.8429,-2.0,29.13,2 
TABS,ioos:station:wmo:42048:1,2010-05-16T01:00:00Z,27.9396,-96.8429,-2.0,27.22,2 
TABS,ioos:station:wmo:42048:1,2010-05-16T01:30:00Z,27.9396,-96.8429,-2.0,25.38,2 
TABS,ioos:station:wmo:42048:1,2010-05-16T02:00:00Z,27.9396,-96.8429,-2.0,24.03,2 
TABS,ioos:station:wmo:42048:1,2010-05-16T02:30:00Z,27.9396,-96.8429,-2.0,23.01,2 
TABS,ioos:station:wmo:42048:1,2010-05-16T03:00:00Z,27.9396,-96.8429,-2.0,22.12,2 
TABS,ioos:station:wmo:42048:1,2010-05-16T03:30:00Z,27.9396,-96.8429,-2.0,21.38,2 
TABS,ioos:station:wmo:42048:1,2010-05-16T04:00:00Z,27.9396,-96.8429,-2.0,20.94,2 
TABS,ioos:station:wmo:42048:1,2010-05-16T04:30:00Z,27.9396,-96.8429,-2.0,20.59,2 
TABS,ioos:station:wmo:42048:1,2010-05-16T05:00:00Z,27.9396,-96.8429,-2.0,20.28,2 
TABS,ioos:station:wmo:42048:1,2010-05-16T05:30:00Z,27.9396,-96.8429,-2.0,19.98,2 
TABS,ioos:station:wmo:42048:1,2010-05-16T06:00:00Z,27.9396,-96.8429,-2.0,19.62,2 
TABS,ioos:station:wmo:42048:1,2010-05-16T06:30:00Z,27.9396,-96.8429,-2.0,19.27,2 
TABS,ioos:station:wmo:42048:1,2010-05-16T07:00:00Z,27.9396,-96.8429,-2.0,19.03,2 
TABS,ioos:station:wmo:42048:1,2010-05-16T07:30:00Z,27.9396,-96.8429,-2.0,18.98,2 
TABS,ioos:station:wmo:42048:1,2010-05-16T08:00:00Z,27.9396,-96.8429,-2.0,18.91,2 
TABS,ioos:station:wmo:42048:1,2010-05-16T08:30:00Z,27.9396,-96.8429,-2.0,18.88,2 
TABS,ioos:station:wmo:42048:1,2010-05-16T09:00:00Z,27.9396,-96.8429,-2.0,18.75,2 
TABS,ioos:station:wmo:42048:1,2010-05-16T09:30:00Z,27.9396,-96.8429,-2.0,18.57,2 
TABS,ioos:station:wmo:42048:1,2010-05-16T10:00:00Z,27.9396,-96.8429,-2.0,18.38,2 
TABS,ioos:station:wmo:42048:1,2010-05-16T10:30:00Z,27.9396,-96.8429,-2.0,18.28,2 
TABS,ioos:station:wmo:42048:1,2010-05-16T11:00:00Z,27.9396,-96.8429,-2.0,18.24,2 
TABS,ioos:station:wmo:42048:1,2010-05-16T11:30:00Z,27.9396,-96.8429,-2.0,18.11,2 
TABS,ioos:station:wmo:42048:1,2010-05-16T12:00:00Z,27.9396,-96.8429,-2.0,18.22,2 
TABS,ioos:station:wmo:42048:1,2010-05-16T12:30:00Z,27.9396,-96.8429,-2.0,19.55,2 
TABS,ioos:station:wmo:42048:1,2010-05-16T13:00:00Z,27.9396,-96.8429,-2.0,20.7,2 
TABS,ioos:station:wmo:42048:1,2010-05-16T13:30:00Z,27.9396,-96.8429,-2.0,21.88,2 
TABS,ioos:station:wmo:42048:1,2010-05-16T14:00:00Z,27.9396,-96.8429,-2.0,22.87,2 
TABS,ioos:station:wmo:42048:1,2010-05-16T14:30:00Z,27.9396,-96.8429,-2.0,24.29,2 
TABS,ioos:station:wmo:42048:1,2010-05-16T15:00:00Z,27.9396,-96.8429,-2.0,25.62,2 
TABS,ioos:station:wmo:42048:1,2010-05-16T15:30:00Z,27.9396,-96.8429,-2.0,25.62,2 
TABS,ioos:station:wmo:42048:1,2010-05-16T16:00:00Z,27.9396,-96.8429,-2.0,25.62,2 
TABS,ioos:station:wmo:42048:1,2010-05-16T16:30:00Z,27.9396,-96.8429,-2.0,25.62,2 
TABS,ioos:station:wmo:42048:1,2010-05-16T17:00:00Z,27.9396,-96.8429,-2.0,25.62,2 
TABS,ioos:station:wmo:42048:1,2010-05-16T17:30:00Z,27.9396,-96.8429,-2.0,25.62,2 
TABS,ioos:station:wmo:42048:1,2010-05-16T18:00:00Z,27.9396,-96.8429,-2.0,25.62,2 
TABS,ioos:station:wmo:42048:1,2010-05-16T18:30:00Z,27.9396,-96.8429,-2.0,25.62,2 
TABS,ioos:station:wmo:42048:1,2010-05-16T19:00:00Z,27.9396,-96.8429,-2.0,25.62,2 
TABS,ioos:station:wmo:42048:1,2010-05-16T19:30:00Z,27.9396,-96.8429,-2.0,25.62,2 
TABS,ioos:station:wmo:42048:1,2010-05-16T20:00:00Z,27.9396,-96.8429,-2.0,25.62,2 
TABS,ioos:station:wmo:42048:1,2010-05-16T20:30:00Z,27.9396,-96.8429,-2.0,25.62,2 
TABS,ioos:station:wmo:42048:1,2010-05-17T02:00:00Z,27.9396,-96.8429,-2.0,28.88,2 
TABS,ioos:station:wmo:42048:1,2010-05-17T02:30:00Z,27.9396,-96.8429,-2.0,27.73,2 
TABS,ioos:station:wmo:42048:1,2010-05-17T03:00:00Z,27.9396,-96.8429,-2.0,26.79,2 
TABS,ioos:station:wmo:42048:1,2010-05-17T03:30:00Z,27.9396,-96.8429,-2.0,26.07,2 
TABS,ioos:station:wmo:42048:1,2010-05-17T04:00:00Z,27.9396,-96.8429,-2.0,25.33,2 
TABS,ioos:station:wmo:42048:1,2010-05-17T04:30:00Z,27.9396,-96.8429,-2.0,24.79,2 
TABS,ioos:station:wmo:42048:1,2010-05-17T05:00:00Z,27.9396,-96.8429,-2.0,24.25,2 
TABS,ioos:station:wmo:42048:1,2010-05-17T05:30:00Z,27.9396,-96.8429,-2.0,23.88,2 
TABS,ioos:station:wmo:42048:1,2010-05-17T06:00:00Z,27.9396,-96.8429,-2.0,23.59,2 
TABS,ioos:station:wmo:42048:1,2010-05-17T06:30:00Z,27.9396,-96.8429,-2.0,23.32,2 
TABS,ioos:station:wmo:42048:1,2010-05-17T09:00:00Z,27.9396,-96.8429,-2.0,22.12,2 
TABS,ioos:station:wmo:42048:1,2010-05-17T09:30:00Z,27.9396,-96.8429,-2.0,21.9,2 
TABS,ioos:station:wmo:42048:1,2010-05-17T10:00:00Z,27.9396,-96.8429,-2.0,21.56,2 
TABS,ioos:station:wmo:42048:1,2010-05-17T10:30:00Z,27.9396,-96.8429,-2.0,21.38,2 
TABS,ioos:station:wmo:42048:1,2010-05-17T11:00:00Z,27.9396,-96.8429,-2.0,21.19,2 
TABS,ioos:station:wmo:42048:1,2010-05-17T11:30:00Z,27.9396,-96.8429,-2.0,21.04,2 
TABS,ioos:station:wmo:42048:1,2010-05-17T12:00:00Z,27.9396,-96.8429,-2.0,21.19,2 
TABS,ioos:station:wmo:42048:1,2010-05-17T12:30:00Z,27.9396,-96.8429,-2.0,22.39,2 
TABS,ioos:station:wmo:42048:1,2010-05-17T13:00:00Z,27.9396,-96.8429,-2.0,23.68,2 
TABS,ioos:station:wmo:42048:1,2010-05-17T13:30:00Z,27.9396,-96.8429,-2.0,25.4,2 
TABS,ioos:station:wmo:42048:1,2010-05-17T14:00:00Z,27.9396,-96.8429,-2.0,27.06,2 
TABS,ioos:station:wmo:42048:1,2010-05-17T14:30:00Z,27.9396,-96.8429,-2.0,29.11,2 
TABS,ioos:station:wmo:42048:1,2010-05-17T15:00:00Z,27.9396,-96.8429,-2.0,30.98,2 
TABS,ioos:station:wmo:42048:1,2010-05-17T15:30:00Z,27.9396,-96.8429,-2.0,30.98,2 
TABS,ioos:station:wmo:42048:1,2010-05-17T16:00:00Z,27.9396,-96.8429,-2.0,30.98,2 
TABS,ioos:station:wmo:42048:1,2010-05-17T16:30:00Z,27.9396,-96.8429,-2.0,30.98,2 
TABS,ioos:station:wmo:42048:1,2010-05-17T17:00:00Z,27.9396,-96.8429,-2.0,30.98,2 
TABS,ioos:station:wmo:42048:1,2010-05-17T17:30:00Z,27.9396,-96.8429,-2.0,30.98,2 
TABS,ioos:station:wmo:42048:1,2010-05-17T18:00:00Z,27.9396,-96.8429,-2.0,30.98,2 
TABS,ioos:station:wmo:42048:1,2010-05-17T18:30:00Z,27.9396,-96.8429,-2.0,30.98,2 
TABS,ioos:station:wmo:42048:1,2010-05-17T19:00:00Z,27.9396,-96.8429,-2.0,30.98,2 
TABS,ioos:station:wmo:42048:1,2010-05-17T19:30:00Z,27.9396,-96.8429,-2.0,30.98,2 
TABS,ioos:station:wmo:42048:1,2010-05-17T20:00:00Z,27.9396,-96.8429,-2.0,30.98,2 
TABS,ioos:station:wmo:42048:1,2010-05-18T09:00:00Z,27.9396,-96.8429,-2.0,19.49,2 
TABS,ioos:station:wmo:42048:1,2010-05-18T09:30:00Z,27.9396,-96.8429,-2.0,19.26,2 
TABS,ioos:station:wmo:42048:1,2010-05-18T10:00:00Z,27.9396,-96.8429,-2.0,19.06,2 
TABS,ioos:station:wmo:42048:1,2010-05-18T10:30:00Z,27.9396,-96.8429,-2.0,18.89,2 
TABS,ioos:station:wmo:42048:1,2010-05-18T11:00:00Z,27.9396,-96.8429,-2.0,18.74,2 
TABS,ioos:station:wmo:42048:1,2010-05-18T11:30:00Z,27.9396,-96.8429,-2.0,18.56,2 
TABS,ioos:station:wmo:42048:1,2010-05-18T12:00:00Z,27.9396,-96.8429,-2.0,18.62,2 
TABS,ioos:station:wmo:42048:1,2010-05-18T12:30:00Z,27.9396,-96.8429,-2.0,20.17,2 
TABS,ioos:station:wmo:42048:1,2010-05-18T13:00:00Z,27.9396,-96.8429,-2.0,22.3,2 
TABS,ioos:station:wmo:42048:1,2010-05-18T13:30:00Z,27.9396,-96.8429,-2.0,24.17,2 
TABS,ioos:station:wmo:42048:1,2010-05-18T14:00:00Z,27.9396,-96.8429,-2.0,26.75,2 
TABS,ioos:station:wmo:42048:1,2010-05-18T14:30:00Z,27.9396,-96.8429,-2.0,28.26,2 
TABS,ioos:station:wmo:42048:1,2010-05-18T15:00:00Z,27.9396,-96.8429,-2.0,29.94,2 
TABS,ioos:station:wmo:42048:1,2010-05-18T15:30:00Z,27.9396,-96.8429,-2.0,31.4,2 
TABS,ioos:station:wmo:42048:1,2010-05-18T16:00:00Z,27.9396,-96.8429,-2.0,33.37,2 
TABS,ioos:station:wmo:42048:1,2010-05-18T16:30:00Z,27.9396,-96.8429,-2.0,34.11,2 
TABS,ioos:station:wmo:42048:1,2010-05-18T17:00:00Z,27.9396,-96.8429,-2.0,34.88,2 
TABS,ioos:station:wmo:42048:1,2010-05-18T17:30:00Z,27.9396,-96.8429,-2.0,36.55,2 
TABS,ioos:station:wmo:42048:1,2010-05-18T18:00:00Z,27.9396,-96.8429,-2.0,38.0,2 
TABS,ioos:station:wmo:42048:1,2010-05-18T18:30:00Z,27.9396,-96.8429,-2.0,38.33,2 
TABS,ioos:station:wmo:42048:1,2010-05-18T19:00:00Z,27.9396,-96.8429,-2.0,39.72,2 
TABS,ioos:station:wmo:42048:1,2010-05-18T19:30:00Z,27.9396,-96.8429,-2.0,41.02,2 
TABS,ioos:station:wmo:42048:1,2010-05-18T20:00:00Z,27.9396,-96.8429,-2.0,41.6,2 
TABS,ioos:station:wmo:42048:1,2010-05-18T20:30:00Z,27.9396,-96.8429,-2.0,40.95,2 
TABS,ioos:station:wmo:42048:1,2010-05-18T21:00:00Z,27.9396,-96.8429,-2.0,40.49,2 
TABS,ioos:station:wmo:42048:1,2010-05-18T21:30:00Z,27.9396,-96.8429,-2.0,39.89,2 
TABS,ioos:station:wmo:42048:1,2010-05-18T22:00:00Z,27.9396,-96.8429,-2.0,38.31,2 
TABS,ioos:station:wmo:42048:1,2010-05-18T22:30:00Z,27.9396,-96.8429,-2.0,37.88,2 
TABS,ioos:station:wmo:42048:1,2010-05-18T23:00:00Z,27.9396,-96.8429,-2.0,37.34,2 
TABS,ioos:station:wmo:42048:1,2010-05-18T23:30:00Z,27.9396,-96.8429,-2.0,35.41,2 
TABS,ioos:station:wmo:42048:1,2010-05-19T00:00:00Z,27.9396,-96.8429,-2.0,34.13,2 
TABS,ioos:station:wmo:42048:1,2010-05-19T00:30:00Z,27.9396,-96.8429,-2.0,32.63,2 
TABS,ioos:station:wmo:42048:1,2010-05-19T01:00:00Z,27.9396,-96.8429,-2.0,30.88,2 
TABS,ioos:station:wmo:42048:1,2010-05-19T01:30:00Z,27.9396,-96.8429,-2.0,29.21,2 
TABS,ioos:station:wmo:42048:1,2010-05-19T02:00:00Z,27.9396,-96.8429,-2.0,27.91,2 
TABS,ioos:station:wmo:42048:1,2010-05-19T02:30:00Z,27.9396,-96.8429,-2.0,26.97,2 
TABS,ioos:station:wmo:42048:1,2010-05-19T03:00:00Z,27.9396,-96.8429,-2.0,26.2,2 
TABS,ioos:station:wmo:42048:1,2010-05-19T03:30:00Z,27.9396,-96.8429,-2.0,25.51,2 
TABS,ioos:station:wmo:42048:1,2010-05-19T04:00:00Z,27.9396,-96.8429,-2.0,25.06,2 
TABS,ioos:station:wmo:42048:1,2010-05-19T04:30:00Z,27.9396,-96.8429,-2.0,24.69,2 
TABS,ioos:station:wmo:42048:1,2010-05-19T05:00:00Z,27.9396,-96.8429,-2.0,24.3,2 
TABS,ioos:station:wmo:42048:1,2010-05-19T05:30:00Z,27.9396,-96.8429,-2.0,23.93,2 
TABS,ioos:station:wmo:42048:1,2010-05-19T06:00:00Z,27.9396,-96.8429,-2.0,23.7,2 
TABS,ioos:station:wmo:42048:1,2010-05-19T06:30:00Z,27.9396,-96.8429,-2.0,23.61,2 
TABS,ioos:station:wmo:42048:1,2010-05-19T07:00:00Z,27.9396,-96.8429,-2.0,23.23,2 
TABS,ioos:station:wmo:42048:1,2010-05-19T07:30:00Z,27.9396,-96.8429,-2.0,22.94,2 
TABS,ioos:station:wmo:42048:1,2010-05-19T08:00:00Z,27.9396,-96.8429,-2.0,22.97,2 
TABS,ioos:station:wmo:42048:1,2010-05-19T08:30:00Z,27.9396,-96.8429,-2.0,23.16,2 
TABS,ioos:station:wmo:42048:1,2010-05-19T09:00:00Z,27.9396,-96.8429,-2.0,22.92,2 
TABS,ioos:station:wmo:42048:1,2010-05-19T09:30:00Z,27.9396,-96.8429,-2.0,22.89,2 
TABS,ioos:station:wmo:42048:1,2010-05-19T10:00:00Z,27.9396,-96.8429,-2.0,22.84,2 
TABS,ioos:station:wmo:42048:1,2010-05-19T10:30:00Z,27.9396,-96.8429,-2.0,22.42,2 
TABS,ioos:station:wmo:42048:1,2010-05-19T11:00:00Z,27.9396,-96.8429,-2.0,21.98,2 
TABS,ioos:station:wmo:42048:1,2010-05-19T11:30:00Z,27.9396,-96.8429,-2.0,21.73,2 
TABS,ioos:station:wmo:42048:1,2010-05-19T12:00:00Z,27.9396,-96.8429,-2.0,21.81,2 
TABS,ioos:station:wmo:42048:1,2010-05-19T12:30:00Z,27.9396,-96.8429,-2.0,22.66,2 
TABS,ioos:station:wmo:42048:1,2010-05-19T13:00:00Z,27.9396,-96.8429,-2.0,23.99,2 
TABS,ioos:station:wmo:42048:1,2010-05-19T13:30:00Z,27.9396,-96.8429,-2.0,24.72,2 
TABS,ioos:station:wmo:42048:1,2010-05-19T14:00:00Z,27.9396,-96.8429,-2.0,26.85,2 
TABS,ioos:station:wmo:42048:1,2010-05-19T14:30:00Z,27.9396,-96.8429,-2.0,26.85,2 
TABS,ioos:station:wmo:42048:1,2010-05-19T15:00:00Z,27.9396,-96.8429,-2.0,26.85,2 
TABS,ioos:station:wmo:42048:1,2010-05-19T15:30:00Z,27.9396,-96.8429,-2.0,26.85,2 
TABS,ioos:station:wmo:42048:1,2010-05-19T16:00:00Z,27.9396,-96.8429,-2.0,26.85,2 
TABS,ioos:station:wmo:42048:1,2010-05-19T16:30:00Z,27.9396,-96.8429,-2.0,26.85,2 
TABS,ioos:station:wmo:42048:1,2010-05-19T17:00:00Z,27.9396,-96.8429,-2.0,26.85,2 
TABS,ioos:station:wmo:42048:1,2010-05-19T17:30:00Z,27.9396,-96.8429,-2.0,26.85,2 
TABS,ioos:station:wmo:42048:1,2010-05-19T18:00:00Z,27.9396,-96.8429,-2.0,26.85,2 
TABS,ioos:station:wmo:42048:1,2010-05-19T18:30:00Z,27.9396,-96.8429,-2.0,26.85,2 
TABS,ioos:station:wmo:42048:1,2010-05-19T19:00:00Z,27.9396,-96.8429,-2.0,26.85,2 
TABS,ioos:station:wmo:42048:1,2010-05-19T19:30:00Z,27.9396,-96.8429,-2.0,26.85,2 
TABS,ioos:station:wmo:42048:1,2010-05-19T20:00:00Z,27.9396,-96.8429,-2.0,26.85,2 
TABS,ioos:station:wmo:42048:1,2010-05-19T20:30:00Z,27.9396,-96.8429,-2.0,26.85,2 
TABS,ioos:station:wmo:42048:1,2010-05-19T21:00:00Z,27.9396,-96.8429,-2.0,26.85,2 
TABS,ioos:station:wmo:42048:1,2010-05-19T21:30:00Z,27.9396,-96.8429,-2.0,26.85,2 
TABS,ioos:station:wmo:42048:1,2010-05-19T22:00:00Z,27.9396,-96.8429,-2.0,26.85,2 
TABS,ioos:station:wmo:42048:1,2010-05-19T22:30:00Z,27.9396,-96.8429,-2.0,26.85,2 
TABS,ioos:station:wmo:42048:1,2010-05-20T03:00:00Z,27.9396,-96.8429,-2.0,26.24,2 
TABS,ioos:station:wmo:42048:1,2010-05-20T03:30:00Z,27.9396,-96.8429,-2.0,25.61,2 
TABS,ioos:station:wmo:42048:1,2010-05-20T04:00:00Z,27.9396,-96.8429,-2.0,25.07,2 
TABS,ioos:station:wmo:42048:1,2010-05-20T04:30:00Z,27.9396,-96.8429,-2.0,24.58,2 
TABS,ioos:station:wmo:42048:1,2010-05-20T05:00:00Z,27.9396,-96.8429,-2.0,24.15,2 
TABS,ioos:station:wmo:42048:1,2010-05-20T05:30:00Z,27.9396,-96.8429,-2.0,23.8,2 
TABS,ioos:station:wmo:42048:1,2010-05-20T06:00:00Z,27.9396,-96.8429,-2.0,23.48,2 
TABS,ioos:station:wmo:42048:1,2010-05-20T06:30:00Z,27.9396,-96.8429,-2.0,23.26,2 
TABS,ioos:station:wmo:42048:1,2010-05-20T07:00:00Z,27.9396,-96.8429,-2.0,23.15,2 
TABS,ioos:station:wmo:42048:1,2010-05-20T07:30:00Z,27.9396,-96.8429,-2.0,23.04,2 
TABS,ioos:station:wmo:42048:1,2010-05-20T08:00:00Z,27.9396,-96.8429,-2.0,22.99,2 
TABS,ioos:station:wmo:42048:1,2010-05-20T08:30:00Z,27.9396,-96.8429,-2.0,22.94,2 
TABS,ioos:station:wmo:42048:1,2010-05-20T09:00:00Z,27.9396,-96.8429,-2.0,22.84,2 
TABS,ioos:station:wmo:42048:1,2010-05-20T09:30:00Z,27.9396,-96.8429,-2.0,22.78,2 
TABS,ioos:station:wmo:42048:1,2010-05-20T10:00:00Z,27.9396,-96.8429,-2.0,22.95,2 
TABS,ioos:station:wmo:42048:1,2010-05-20T10:30:00Z,27.9396,-96.8429,-2.0,22.91,2 
TABS,ioos:station:wmo:42048:1,2010-05-20T11:00:00Z,27.9396,-96.8429,-2.0,23.03,2 
TABS,ioos:station:wmo:42048:1,2010-05-20T11:30:00Z,27.9396,-96.8429,-2.0,23.14,2 
TABS,ioos:station:wmo:42048:1,2010-05-20T12:00:00Z,27.9396,-96.8429,-2.0,23.46,2 
TABS,ioos:station:wmo:42048:1,2010-05-20T16:30:00Z,27.9396,-96.8429,-2.0,29.33,2 
TABS,ioos:station:wmo:42048:1,2010-05-20T17:00:00Z,27.9396,-96.8429,-2.0,29.56,2 
TABS,ioos:station:wmo:42048:1,2010-05-20T17:30:00Z,27.9396,-96.8429,-2.0,31.25,2 
TABS,ioos:station:wmo:42048:1,2010-05-20T18:00:00Z,27.9396,-96.8429,-2.0,31.96,2 
TABS,ioos:station:wmo:42048:1,2010-05-20T18:30:00Z,27.9396,-96.8429,-2.0,32.97,2 
TABS,ioos:station:wmo:42048:1,2010-05-20T19:00:00Z,27.9396,-96.8429,-2.0,34.23,2 
TABS,ioos:station:wmo:42048:1,2010-05-20T19:30:00Z,27.9396,-96.8429,-2.0,33.82,2 
TABS,ioos:station:wmo:42048:1,2010-05-20T20:00:00Z,27.9396,-96.8429,-2.0,34.81,2 
TABS,ioos:station:wmo:42048:1,2010-05-20T20:30:00Z,27.9396,-96.8429,-2.0,35.17,2 
TABS,ioos:station:wmo:42048:1,2010-05-20T21:00:00Z,27.9396,-96.8429,-2.0,35.4,2 
TABS,ioos:station:wmo:42048:1,2010-05-21T17:00:00Z,27.9396,-96.8429,-2.0,35.66,2 
TABS,ioos:station:wmo:42048:1,2010-05-21T17:30:00Z,27.9396,-96.8429,-2.0,37.13,2 
TABS,ioos:station:wmo:42048:1,2010-05-21T18:00:00Z,27.9396,-96.8429,-2.0,37.32,2 
TABS,ioos:station:wmo:42048:1,2010-05-21T18:30:00Z,27.9396,-96.8429,-2.0,37.94,2 
TABS,ioos:station:wmo:42048:1,2010-05-21T19:00:00Z,27.9396,-96.8429,-2.0,38.44,2 
TABS,ioos:station:wmo:42048:1,2010-05-21T19:30:00Z,27.9396,-96.8429,-2.0,38.5,2 
TABS,ioos:station:wmo:42048:1,2010-05-21T20:00:00Z,27.9396,-96.8429,-2.0,38.5,2 
TABS,ioos:station:wmo:42048:1,2010-05-21T20:30:00Z,27.9396,-96.8429,-2.0,38.1,2 
TABS,ioos:station:wmo:42048:1,2010-05-21T21:00:00Z,27.9396,-96.8429,-2.0,38.48,2 
TABS,ioos:station:wmo:42048:1,2010-05-21T21:30:00Z,27.9396,-96.8429,-2.0,37.98,2 
TABS,ioos:station:wmo:42048:1,2010-05-21T22:00:00Z,27.9396,-96.8429,-2.0,37.08,2 
TABS,ioos:station:wmo:42048:1,2010-05-21T22:30:00Z,27.9396,-96.8429,-2.0,36.76,2 
TABS,ioos:station:wmo:42048:1,2010-05-21T23:00:00Z,27.9396,-96.8429,-2.0,36.43,2 
TABS,ioos:station:wmo:42048:1,2010-05-21T23:30:00Z,27.9396,-96.8429,-2.0,35.54,2 
TABS,ioos:station:wmo:42048:1,2010-05-22T00:00:00Z,27.9396,-96.8429,-2.0,34.23,2 
TABS,ioos:station:wmo:42048:1,2010-05-22T00:30:00Z,27.9396,-96.8429,-2.0,32.88,2 
TABS,ioos:station:wmo:42048:1,2010-05-22T01:00:00Z,27.9396,-96.8429,-2.0,31.68,2 
TABS,ioos:station:wmo:42048:1,2010-05-22T01:30:00Z,27.9396,-96.8429,-2.0,30.46,2 
TABS,ioos:station:wmo:42048:1,2010-05-22T18:00:00Z,27.9396,-96.8429,-2.0,36.39,2 
TABS,ioos:station:wmo:42048:1,2010-05-22T18:30:00Z,27.9396,-96.8429,-2.0,36.8,2 
TABS,ioos:station:wmo:42048:1,2010-05-22T19:00:00Z,27.9396,-96.8429,-2.0,37.34,2 
TABS,ioos:station:wmo:42048:1,2010-05-22T19:30:00Z,27.9396,-96.8429,-2.0,37.35,2 
TABS,ioos:station:wmo:42048:1,2010-05-22T20:00:00Z,27.9396,-96.8429,-2.0,36.69,2 
TABS,ioos:station:wmo:42048:1,2010-05-22T20:30:00Z,27.9396,-96.8429,-2.0,36.78,2 
TABS,ioos:station:wmo:42048:1,2010-05-22T21:00:00Z,27.9396,-96.8429,-2.0,36.42,2 
TABS,ioos:station:wmo:42048:1,2010-05-22T21:30:00Z,27.9396,-96.8429,-2.0,36.5,2 
TABS,ioos:station:wmo:42048:1,2010-05-22T22:00:00Z,27.9396,-96.8429,-2.0,35.66,2 
TABS,ioos:station:wmo:42048:1,2010-05-22T22:30:00Z,27.9396,-96.8429,-2.0,35.43,2 
TABS,ioos:station:wmo:42048:1,2010-05-22T23:00:00Z,27.9396,-96.8429,-2.0,35.34,2 
TABS,ioos:station:wmo:42048:1,2010-05-22T23:30:00Z,27.9396,-96.8429,-2.0,34.44,2 
TABS,ioos:station:wmo:42048:1,2010-05-23T00:00:00Z,27.9396,-96.8429,-2.0,33.21,2 
TABS,ioos:station:wmo:42048:1,2010-05-23T00:30:00Z,27.9396,-96.8429,-2.0,31.8,2 
TABS,ioos:station:wmo:42048:1,2010-05-23T01:00:00Z,27.9396,-96.8429,-2.0,30.43,2 
TABS,ioos:station:wmo:42048:1,2010-05-23T01:30:00Z,27.9396,-96.8429,-2.0,29.17,2 
TABS,ioos:station:wmo:42048:1,2010-05-23T02:00:00Z,27.9396,-96.8429,-2.0,28.23,2 